TimeCDT,TemperatureF,Dew PointF,Humidity,Sea Level PressureIn,VisibilityMPH,Wind Direction,Wind SpeedMPH,Gust SpeedMPH,PrecipitationIn,Events,Conditions,WindDirDegrees,DateUTC
12:53 AM,80.1,70.0,71,29.91,-9999.0,SSE,10.4,-,N/A,,Clear,160,2013-08-02 05:53:00
1:53 AM,81.0,70.0,69,29.89,-9999.0,SSE,9.2,-,N/A,,Clear,150,2013-08-02 06:53:00
2:53 AM,81.0,71.1,72,29.85,-9999.0,SSE,13.8,-,N/A,,Clear,160,2013-08-02 07:53:00
3:53 AM,81.0,72.0,74,29.85,-9999.0,South,13.8,-,N/A,,Clear,170,2013-08-02 08:53:00
4:53 AM,80.1,71.1,74,29.84,-9999.0,South,15.0,-,N/A,,Clear,180,2013-08-02 09:53:00
5:53 AM,79.0,71.1,77,29.84,-9999.0,South,12.7,-,N/A,,Clear,190,2013-08-02 10:53:00
6:53 AM,78.1,71.1,79,29.84,-9999.0,South,11.5,-,N/A,,Mostly Cloudy,190,2013-08-02 11:53:00
7:53 AM,79.0,71.1,77,29.85,9.0,South,9.2,-,N/A,,Partly Cloudy,190,2013-08-02 12:53:00
8:53 AM,84.0,69.1,61,29.85,10.0,SSW,15.0,-,N/A,,Clear,210,2013-08-02 13:53:00
9:53 AM,88.0,69.1,53,29.84,10.0,SSW,16.1,-,N/A,,Clear,210,2013-08-02 14:53:00
10:53 AM,93.0,64.9,39,29.84,10.0,WSW,18.4,26.5,N/A,,Clear,240,2013-08-02 15:53:00
11:53 AM,99.0,61.0,28,29.83,10.0,SW,16.1,24.2,N/A,,Clear,220,2013-08-02 16:53:00
12:53 PM,100.9,60.1,26,29.82,10.0,SW,20.7,26.5,N/A,,Clear,230,2013-08-02 17:53:00
1:53 PM,104.0,57.0,21,29.80,10.0,WSW,11.5,25.3,N/A,,Clear,240,2013-08-02 18:53:00
2:53 PM,105.1,57.0,20,29.78,10.0,SSW,18.4,31.1,N/A,,Partly Cloudy,200,2013-08-02 19:53:00
3:53 PM,105.1,55.9,20,29.77,10.0,SSW,17.3,28.8,N/A,,Clear,210,2013-08-02 20:53:00
4:53 PM,105.1,57.0,20,29.76,10.0,SSW,21.9,28.8,N/A,,Clear,210,2013-08-02 21:53:00
5:53 PM,104.0,55.9,20,29.75,10.0,South,19.6,27.6,N/A,,Clear,190,2013-08-02 22:53:00
6:53 PM,102.0,57.0,22,29.75,10.0,SSW,18.4,26.5,N/A,,Clear,210,2013-08-02 23:53:00
7:53 PM,99.0,57.9,25,29.75,10.0,South,19.6,-,N/A,,Clear,190,2013-08-03 00:53:00
8:53 PM,95.0,59.0,30,29.77,10.0,South,13.8,-,N/A,,Clear,190,2013-08-03 01:53:00
9:53 PM,91.9,60.1,34,29.78,10.0,South,12.7,-,N/A,,Clear,180,2013-08-03 02:53:00
10:53 PM,91.9,61.0,35,29.80,10.0,South,18.4,-,N/A,,Clear,180,2013-08-03 03:53:00
11:53 PM,89.1,60.1,38,29.80,10.0,South,13.8,-,N/A,,Clear,190,2013-08-03 04:53:00